M2 PATHFINDER

Last updated on Sat Aug 15 2026 00:03:44 GMT+0000 (Coordinated Universal Time)

1 45727U 20037E 26226.49657998 .00001131 00000+0 84389-4 0 9993 2 45727 97.8138 58.3946 0010597 321.7657 38.2816 15.04897777334262
UTC large
Height (km)
Speed (km/s)
/
Latitude / Longitude
Inclination (degrees)
Orbital Period (minutes)
Azimuth
Elevation
Range (km)
Doppler Factor

Next 0 passes for location: London (51.5072 / 0.1276)

No passes found over London.
M2 PATHFINDER